User: anonymous
Location: *
(40.4270°N, 9.4940°E)
Time: 08:39:13
(UTC+02:00)
Language:

Okean 2 - Orbit

View from above orbital plane
View from above orbital plane
View from above satellite
View from above satellite

Ground track
Ground track

The orbit data is extracted from the following two-line orbital elements,

1 20510U 90018A   14209.30070429  .00001166  00000-0  10155-3 0  7769
2 20510 082.5170 102.8623 0011621 303.6175 197.9590 14.96028872323523
Epoch (UTC): 28 July 2014 07:13:00
Eccentricity: 0.0011621
inclination: 82.5170°
perigee height: 571 km
apogee height: 587 km
right ascension of ascending node: 102.8623°
argument of perigee: 303.6175°
revolutions per day: 14.96028872
mean anomaly at epoch: 197.9590°
orbit number at epoch: 32352

The dashed part of the orbit path shows where the satellite is in the earth's shadow,  

DLR